loading
|

DELTA 1 R/B(2), 2643

Orbit data source: Space-Track

DELTA 1 R/B(2), 2643 is space debris in HEO originally from a launch on Wed, 11 Jan 1967 UTC launched from the Air Force Eastern Test Range (AFETR). Debris objects in space refer to the collection of defunct objects orbiting the Earth. Examples of debris include non-operational satellites, rocket bodies, and fragments generated from explosions, collisions, or faulty payload assembly.

Loading next visibility...
Next conjunction unknown
Loading greatness...
DELTA 1 R/B(2) details
Identifier
2643, 1967-001D
Orbit
HEO
Last TLE update14 hours ago
Origin
Flag of USGSFC (US)
ManufacturerUTC
MissionSpacecraft
Bus & MotorFW4, Unknown motor
Mass34 kg wet, 34 kg dry
Launch date (UTC)
1967-01-11 (58 years ago)
Launch vehicleUnknown
Launch site
Air Force Eastern Test Range (AFETR)
Object type
Payload
Rocket body
Debris
Shape & HBRCyl, 1.5 m
Radar Cross Section0.687 m², Medium (>0.1 m² and < 1m²)

Expand to show TLE details & history

TLE from 14 hours ago
0 DELTA 1 R/B(2)
1  2643U 67001D   24285.41976048  .00026991  00000-0  84442-2 0  9990
2  2643  25.9272 316.7266 6022538 283.8732  19.2339  3.98309191731140
Epoch: 2024-10-11T10:04Z
Definitive object data (Epoch: 2024-10-11T10:04:27.305Z)
Latitude0.00015°
Longitude145.13334°
Altitude2,993.96 km
Speed7.833 km/s
True Right ascension21h 06m 56s
True Declination0° 00' 01"
Sunlit
Object was in daylight at TLE epoch
Predictive object data (real-time)
Latitude25.51331°
Longitude-136.6515°
Altitude17,259.483 km
Speed3.165 km/s
Apparent Right ascension02h 57m 28s
Apparent Declination13° 58' 30"
Sunlit
Object is in daylight
Predictive observer data (real-time)
Local Sidereal Time17:59:14
Azimuth48.022° ENE
Elevation-21.546°
Doppler factor1
Orbital elements
Apogee20,562.928 km
Perigee309.759 km
Semi-major axis16,814.48 km
Eccentricity0.6022538
Inclination25.9272°
RAAN316.7266°
Arg. of periapsis283.8732°
True anomaly76.06382°
Mean anomaly19.2339°
Eccentric anomaly42.58309°
Mean motion0.99545 °/min
BSTAR0.0084442
Period361.65 mins
No data available

DELTA 1 R/B(2) Visibility forecast

Observer location: 39.9160978°, -105.1181434

Span
Click to sort rows by Start time (UTC) header in descending order
Start Az.
Max El. time (UTC)
Max El. Az.
Max El.
End time (UTC)
End Az.
272 mins2024-10-12 04:11:32.050Z206.274° SW2024-10-12 04:49:32.050Z132.489° SE38.102°2024-10-12 08:43:32.050Z98.848° ESE
267 mins2024-10-12 10:57:32.050Z274.334° WNW2024-10-12 13:50:32.050Z253.951° W32.203°2024-10-12 15:24:32.050Z183.064° SSW